DateTimeUTC,F1_A11,F1_S11,BsB_S11,BsG_S11,BsR_S11,BbsB_S11,BbsG_S11,BbsR_S11,BaB_A11,BaG_A11,BaR_A11,Tu_S11,T_S11,Uu_S11,U_S11,P_S11,T1_A11
2021-11-29T12:00:00Z,00000200,21000000,,,,,,,0000.05,0000.41,0000.26,18.9,25.8,,00.0,0631.3,30.8
2021-11-29T12:01:00Z,00000200,21000000,,,,,,,-000.01,-000.13,-000.35,18.8,25.8,,00.0,0631.3,30.8
2021-11-29T12:02:00Z,00000200,21000000,,,,,,,0000.07,-000.04,0000.23,18.8,25.8,,00.0,0631.3,30.8
2021-11-29T12:03:00Z,00000200,61000000,,,,,,,0000.53,0000.26,0000.49,18.8,25.8,,00.0,0631.3,30.8
2021-11-29T12:04:00Z,00000200,41000000,0001.00,0000.14,0000.45,-000.66,0000.43,0000.36,0000.14,0000.16,0000.04,19.0,25.5,,00.0,0632.1,30.8
2021-11-29T12:05:00Z,00000200,01000000,0000.52,0000.42,0000.33,0000.08,0000.22,-000.04,0000.47,0000.31,0000.25,19.0,25.5,,00.0,0632.1,30.8
2021-11-29T12:06:00Z,00000200,01000000,0001.41,0000.50,0000.25,0000.12,0000.19,-000.05,0000.07,0000.21,0000.47,19.1,25.5,,00.0,0632.1,30.8
2021-11-29T12:07:00Z,00000200,01000000,0000.71,0000.39,0000.14,0000.39,0000.29,-000.03,0000.21,0000.38,-000.05,19.1,25.5,,00.0,0632.1,30.8
2021-11-29T12:08:00Z,00000200,01000000,0001.06,0000.16,0000.29,-000.22,0000.35,0000.03,0000.30,0000.14,0000.07,19.2,25.5,,00.0,0632.1,30.9
2021-11-29T12:09:00Z,00000200,01000000,0000.31,0000.11,0000.09,-000.30,0000.11,0000.51,0000.13,-000.14,0000.15,19.2,25.5,,00.0,0632.1,30.9
2021-11-29T12:10:00Z,00000200,01000000,0001.00,0000.36,0000.04,-000.08,0000.20,0000.10,-000.02,0000.57,0000.24,19.2,25.5,,00.0,0632.1,30.9
2021-11-29T12:11:00Z,00000200,01000000,0000.90,0000.15,0000.33,0000.42,0000.21,0000.13,0000.40,-000.21,0000.09,19.3,25.5,,00.0,0632.1,30.9
2021-11-29T12:12:00Z,00000200,01000000,0000.74,0000.46,0000.09,-000.20,0000.23,0000.11,0000.15,0000.01,-000.00,19.3,25.6,,00.0,0632.2,30.9
2021-11-29T12:13:00Z,00000200,01000000,0000.81,0000.47,0000.43,0000.21,0000.20,0000.31,-000.18,0000.43,0000.06,19.3,25.6,,00.0,0632.1,30.9
2021-11-29T12:14:00Z,00000200,01000000,0000.64,0000.23,0000.25,0000.53,0000.06,0000.44,0000.23,0000.10,0000.16,19.3,25.6,,00.0,0632.1,30.9
2021-11-29T12:15:00Z,00000200,01000000,0000.36,0000.45,0000.06,0000.10,0000.23,0000.04,0000.17,0000.06,-000.04,19.2,25.6,,00.0,0632.0,30.9
2021-11-29T12:16:00Z,00000200,01000000,0001.52,0000.24,-000.12,-000.12,0000.38,0000.51,0000.26,0000.21,0000.05,19.2,25.5,,00.0,0632.0,30.9
2021-11-29T12:17:00Z,00000200,01000000,0000.98,0000.75,0000.12,0000.30,0000.41,-000.16,0000.18,0000.27,0000.29,19.2,25.5,,00.0,0631.9,30.8
2021-11-29T12:18:00Z,00000200,01000000,0000.85,0000.14,0000.37,-000.16,0000.15,0000.35,0000.46,0000.14,0000.29,19.2,25.5,,00.0,0631.9,30.8
2021-11-29T12:19:00Z,00000200,01000000,0000.79,0000.21,0000.36,0000.36,0000.09,0000.16,0000.11,0000.47,0000.43,19.3,25.5,,00.0,0631.9,30.9
2021-11-29T12:20:00Z,00000200,01000000,0001.70,0000.09,0000.47,-000.15,0000.42,-000.02,0000.18,0000.05,-000.18,19.3,25.5,,00.0,0631.8,30.9
2021-11-29T12:21:00Z,00000200,01000000,0001.05,0000.37,-000.12,-000.32,0000.36,0000.07,0000.26,0000.44,0000.29,19.3,25.5,,00.0,0631.8,30.9
2021-11-29T12:22:00Z,00000200,01000000,0000.72,0000.21,0000.41,0000.26,0000.25,0000.08,0000.74,0000.18,0000.12,19.3,25.5,,00.0,0631.8,30.9
2021-11-29T12:23:00Z,00000200,01000000,0001.09,0000.44,0000.39,0000.58,0000.09,0000.53,-000.18,0000.16,0000.24,19.4,25.5,,00.0,0631.8,30.9
2021-11-29T12:24:00Z,00000200,01000000,0000.44,0000.40,0000.49,0000.01,0000.48,0000.35,0000.17,0000.36,0000.68,19.4,25.6,,00.0,0631.8,30.9
2021-11-29T12:25:00Z,00000200,01000000,0001.18,0000.50,-000.11,-000.19,0000.35,0000.07,0000.32,0000.18,-000.08,19.5,25.6,,00.0,0631.8,30.9
2021-11-29T12:26:00Z,00000200,01000000,0001.10,0000.29,0000.21,-000.23,0000.48,0000.23,0000.08,-000.04,-000.13,19.5,25.6,,00.0,0631.8,30.9
2021-11-29T12:27:00Z,00000200,01000000,0001.43,0000.25,0000.28,-000.31,0000.24,0000.17,0000.39,0000.41,0000.32,19.5,25.6,,00.0,0631.8,30.9
2021-11-29T12:28:00Z,00000200,01000000,0000.83,0000.17,0000.09,-000.13,0000.11,0000.43,-000.02,-000.43,-000.39,19.4,25.6,,00.0,0631.8,30.9
2021-11-29T12:29:00Z,00000200,01000000,0000.47,0000.19,0000.48,-000.01,0000.30,0000.71,-000.35,0000.03,0000.33,19.3,25.6,,00.0,0631.8,30.8
2021-11-29T12:30:00Z,00000200,01000000,0000.76,0000.30,0000.15,-000.39,-000.04,0000.17,0000.27,0000.66,-000.09,19.2,25.5,,00.0,0631.8,30.8
2021-11-29T12:31:00Z,00000200,01000000,0000.79,0000.44,0000.17,0000.31,0000.30,0000.18,0000.35,-000.34,0000.07,19.2,25.5,,00.0,0631.7,30.8
2021-11-29T12:32:00Z,00000200,01000000,0000.80,0000.27,0000.27,0000.19,-000.27,0000.39,0000.24,0000.37,0000.49,19.1,25.5,,00.0,0631.7,30.8
2021-11-29T12:33:00Z,00000200,01000000,0000.80,0000.33,-000.06,0000.17,0000.26,-000.19,-000.02,-000.07,-000.15,19.1,25.5,,00.0,0631.7,30.8
2021-11-29T12:34:00Z,00000200,01000000,0000.92,-000.04,0000.20,-000.15,-000.01,-000.02,0000.52,0000.48,0000.62,19.1,25.5,,00.0,0631.6,30.8
2021-11-29T12:35:00Z,00000200,01000000,0003.99,0002.77,0003.30,0000.32,0000.88,0000.84,0009.41,0009.72,0009.35,19.1,25.5,,00.0,0631.0,30.8
2021-11-29T12:36:00Z,00000200,01000000,0000.95,0000.22,0000.82,0000.04,0000.09,0000.35,0000.75,0000.73,0000.72,19.2,25.5,,00.0,0631.0,30.9
2021-11-29T12:37:00Z,00000200,01000000,0001.31,0000.65,0000.57,-000.02,-000.02,0000.35,0000.52,0000.45,0000.43,19.2,25.5,,00.0,0630.9,30.9
2021-11-29T12:38:00Z,00000200,01000000,0000.37,0000.14,0000.48,0000.06,0000.05,0000.39,0000.18,0000.17,0000.27,19.2,25.6,,00.0,0630.9,30.9
2021-11-29T12:39:00Z,00000200,01000000,0000.99,0000.91,0000.27,-000.22,0000.36,0000.25,0000.36,0000.20,0000.56,19.3,25.6,,00.0,0630.8,30.9
2021-11-29T12:40:00Z,00000200,01000000,0001.06,0000.36,0000.27,0000.21,0000.27,0000.35,0000.20,0000.51,-000.24,19.3,25.6,,00.0,0630.8,30.9
2021-11-29T12:41:00Z,00000200,01000000,0001.70,0000.32,0000.31,0000.24,-000.05,0000.17,0000.23,-000.18,0000.26,19.4,25.6,,00.0,0630.8,30.9
2021-11-29T12:42:00Z,00000200,01000000,0001.54,0000.17,0000.48,0000.14,0000.23,0000.50,0000.62,0000.66,0000.27,19.4,25.6,,00.0,0630.8,30.9
2021-11-29T12:43:00Z,00000200,01000000,0000.90,0000.48,0000.23,0001.14,0000.16,-000.19,0000.14,-000.03,0000.19,19.3,25.6,,00.0,0630.7,30.9
2021-11-29T12:44:00Z,00000200,01000000,0000.50,0000.81,0000.08,0000.44,0000.35,0000.08,0000.35,0000.59,0000.67,19.3,25.6,,00.0,0630.6,30.8
2021-11-29T12:45:00Z,00000200,01000000,0000.76,0000.40,0000.24,0000.01,0000.00,-000.03,-000.02,0000.29,-000.04,19.2,25.6,,00.0,0630.6,30.8
2021-11-29T12:46:00Z,00000200,01000000,0000.71,0000.01,0000.16,0000.39,0000.04,0000.19,0000.17,0000.19,-000.06,19.1,25.5,,00.0,0630.6,30.8
2021-11-29T12:47:00Z,00000200,01000000,0001.08,0000.42,0000.36,0000.47,-000.19,0000.19,0000.36,0000.14,0000.31,19.1,25.5,,00.0,0630.6,30.8
2021-11-29T12:48:00Z,00000200,01000000,0000.48,0000.36,0000.32,-000.80,0000.26,0000.20,0000.24,0000.06,-000.14,19.1,25.5,,00.0,0630.6,30.9
2021-11-29T12:49:00Z,00000200,01000000,0001.00,0000.20,0000.37,0000.14,0000.25,0000.04,0000.38,0000.31,0000.53,19.1,25.5,,00.0,0630.5,30.9
2021-11-29T12:50:00Z,00000200,01000000,0000.87,0000.23,0000.18,-000.07,0000.25,0000.30,0000.17,0000.06,-000.13,19.1,25.6,,00.0,0630.5,30.9
2021-11-29T12:51:00Z,00000200,01000000,0001.33,0000.21,0000.32,0000.80,0000.01,0000.28,-000.04,0000.16,0000.40,19.2,25.6,,00.0,0630.5,30.9
2021-11-29T12:52:00Z,00000200,01000000,0001.39,0000.19,0000.20,0000.10,0000.08,0000.07,0000.32,0000.22,0000.10,19.2,25.6,,00.0,0630.5,30.9
2021-11-29T12:53:00Z,00000200,01000000,0001.02,0000.23,0000.23,-000.60,-000.08,0000.35,0000.22,0000.27,0000.39,19.2,25.6,,00.0,0630.6,30.9
2021-11-29T12:54:00Z,00000200,01000000,0000.94,0000.09,0000.07,-000.37,0000.16,0000.07,0000.22,0000.06,0000.11,19.2,25.6,,00.0,0630.6,30.9
2021-11-29T12:55:00Z,00000200,01000000,0000.75,0000.39,0000.12,0000.43,0000.46,0000.52,0000.26,0000.32,-000.16,19.3,25.6,,00.0,0630.6,31.0
2021-11-29T12:56:00Z,00000200,01000000,0001.47,0000.23,0000.21,0000.01,0000.02,-000.04,-000.05,0000.11,0000.22,19.3,25.7,,00.0,0630.6,30.9
2021-11-29T12:57:00Z,00000200,41000000,,,,,,,-000.67,-000.65,-000.75,19.4,25.8,,00.0,0630.5,31.0
2021-11-29T12:58:00Z,00000200,61000000,,,,,,,0000.26,0000.16,0000.48,19.0,25.8,,00.0,0629.7,30.9
2021-11-29T12:59:00Z,00000200,21000000,,,,,,,0000.29,0000.16,0000.12,19.0,25.9,,00.0,0629.7,30.9
